Temp
50 51 51 51 50 49 43 34 27 40 47 31 33 28 34 40 39 43 40 40 38 34 38 36 35 37 41 48 47 41 43 37 30 36 47 48 48 42 41 30 29 32 33 35
50 50 51 51 50 49 36 33 34 40 38 15 28 33 35 38 37 38 38 37 41 41 36 31 38 38 46 47 45 41 43 34 27 32 38 44 39 44 43 39 35 30 26 34
50 50 50 50 50 49 37 32 21 28 34 34 28 28 29 31 40 36 39 38 41 37 35 38 34 36 43 46 47 49 46 36 32 26 31 36 34 40 42 37 27 30 31 37
50 50 50 49 50 49 40 32 26 30 18 24 30 32 31 29 30 41 40 36 37 35 31 33 33 37 38 43 44 43 41 31 34 36 38 38 36 37 38 37 38 31 36 40
49 50 50 49 49 48 37 26 26 30 28 31 29 31 30 30 33 34 32 31 34 36 31 34 31 35 34 34 39 37 38 30 33 31 36 37 34 37 38 40 41 41 43 43
49 49 50 49 49 47 36 37 35 32 28 27 25 28 32 32 38 39 39 33 32 32 38 38 39 39 39 37 34 33 34 32 29 27 34 34 27 34 37 40 44 43 37 46
49 49 49 49 48 45 37 38 37 31 24 28 30 33 35 34 37 33 39 40 37 42 46 42 41 39 39 38 37 38 32 31 29 24 29 18 35 45 45 42 45 47 46 46
49 48 49 49 48 48 37 36 35 32 27 31 33 33 34 35 37 36 37 40 43 42 38 26 28 28 31 34 37 36 38 32 21 18 22 31 36 43 41 38 39 44 43 45
48 48 48 48 49 49 39 38 40 36 29 28 33 32 33 28 28 30 35 42 42 39 28 23 21 20 27 23 33 41 38 36 28 22 19 20 35 45 51 47 32 44 45 44
47 48 48 48 49 49 39 37 41 37 31 34 34 27 30 34 30 26 33 33 34 38 23 22 20 23 34 25 25 27 28 29 24 25 18 27 42 48 51 29 33 46 46 46
47 48 48 48 48 48 41 36 39 38 33 33 38 39 32 31 31 27 34 31 33 32 23 26 25 24 30 29 35 30 28 25 23 26 18 20 45 43 37 39 43 44 44 45
47 48 48 48 48 48 46 36 40 41 36 33 39 41 43 41 40 34 34 32 34 33 28 29 28 28 29 29 25 34 28 32 28 27 29 41 43 42 44 44 44 44 44 46
47 47 48 48 48 48 46 38 38 37 35 34 33 35 43 46 44 43 31 32 40 35 38 31 29 26 31 25 29 31 34 36 33 34 37 38 43 47 48 49 46 47 49 47
47 47 47 47 48 48 48 40 38 36 34 29 29 44 39 45 44 42 43 40 41 38 34 30 29 26 36 29 33 33 34 35 33 34 36 39 44 45 47 47 48 47 46 44
47 47 47 47 47 48 45 41 41 39 34 27 29 37 45 47 43 41 41 40 37 33 32 32 29 33 31 33 34 32 41 37 33 31 39 40 43 47 48 47 47 47 43 39
47 47 47 48 47 48 41 34 40 40 40 33 26 36 40 44 43 42 40 40 38 35 33 34 35 39 35 29 29 41 47 48 46 43 49 47 49 51 49 44 43 41 39 38
46 46 46 47 46 43 37 33 38 45 41 32 26 27 39 43 43 40 38 41 38 36 33 33 33 35 37 30 27 41 45 47 48 50 48 45 47 44 45 42 39 37 35 35
46 46 46 46 47 45 39 42 46 46 38 36 27 27 32 43 35 34 40 37 38 36 34 36 34 36 34 29 37 38 40 45 46 47 48 48 48 48 45 44 40 34 31 30
46 46 46 43 41 36 38 47 47 43 38 28 28 25 24 41 38 39 38 38 31 37 32 34 35 32 29 32 33 33 35 36 37 44 43 43 42 43 46 43 38 32 29 28
47 43 33 30 35 46 46 38 35 33 33 35 29 33 26 37 32 34 32 34 29 29 31 36 30 30 34 35 36 33 33 34 35 34 33 34 34 36 39 37 37 33 29 28
38 33 33 38 47 40 35 29 29 28 28 32 33 31 27 36 28 27 33 26 28 23 28 29 28 29 31 35 34 34 32 32 33 33 34 33 33 33 34 31 30 29 27 26
40 41 43 42 37 33 29 27 29 29 26 29 29 30 33 31 35 28 29 24 26 20 33 29 26 27 30 32 32 32 31 30 31 32 30 31 31 32 30 30 28 27 26 24
45 40 34 34 31 26 24 23 22 23 27 28 28 29 31 33 32 31 29 20 20 29 17 23 24 27 29 29 29 30 31 29 28 28 28 27 27 28 28 26 26 25 23 22
34 32 27 27 24 27 25 27 28 30 27 31 30 30 31 28 27 26 17 24 29 24 16 19 23 25 27 27 29 28 26 26 21 21 23 23 23 23 23 23 23 22 21 20
30 29 20 20 29 30 31 33 32 31 28 29 29 29 29 29 25 30 25 26 23 22 14 18 23 24 25 25 26 23 23 18 17 14 11 12 15 17 19 20 21 20 19 18
28 24 24 29 29 27 29 30 29 31 30 33 30 29 24 20 20 26 26 23 17 13 16 19 21 22 21 23 22 21 18 14 10 7 9 10 11 12 16 18 17 17 17 16
24 22 25 27 25 24 26 27 28 31 31 29 32 26 21 25 25 20 22 12 15 19 17 18 18 19 18 19 19 18 18 15 13 11 14 12 14 14 14 12 13 14 14 14
MSLP
1020.90 1020.96 1021.00 1020.97 1020.92 1020.90 1021.05 1021.59 1021.45 1019.93 1019.45 1020.39 1019.82 1019.02 1018.11 1017.09 1016.23 1016.03 1015.27 1014.83 1014.23 1013.30 1011.98 1011.08 1010.57 1009.55 1008.94 1008.53 1008.09 1007.85 1007.82 1007.95 1007.92 1007.21 1006.53 1006.42 1006.88 1007.67 1008.40 1008.54 1007.95 1007.17 1005.72 1003.27
1020.62 1020.66 1020.67 1020.70 1020.72 1020.81 1021.33 1021.55 1021.14 1019.56 1019.85 1020.27 1019.52 1018.80 1017.97 1017.11 1016.25 1015.67 1015.08 1014.42 1013.52 1013.02 1012.08 1011.51 1010.47 1010.06 1009.75 1009.25 1008.97 1008.64 1008.23 1008.65 1009.05 1007.96 1007.41 1007.48 1007.71 1008.47 1008.98 1009.20 1009.04 1007.94 1006.82 1004.18
1020.22 1020.28 1020.34 1020.39 1020.43 1020.57 1021.25 1021.87 1021.64 1020.63 1020.17 1019.95 1019.65 1019.09 1018.03 1017.12 1016.03 1015.63 1014.96 1014.15 1013.54 1013.19 1012.09 1011.45 1010.86 1010.17 1010.10 1009.73 1009.43 1009.15 1009.10 1009.52 1009.75 1009.46 1009.02 1009.13 1008.73 1008.33 1008.70 1009.13 1009.13 1007.76 1006.65 1004.93
1019.73 1019.84 1020.01 1020.04 1020.02 1020.32 1021.22 1021.74 1021.51 1020.85 1020.64 1020.18 1019.70 1019.27 1018.32 1017.08 1016.12 1015.03 1014.55 1013.67 1012.68 1012.70 1012.21 1011.68 1011.27 1010.70 1010.04 1010.02 1010.00 1009.75 1009.93 1010.25 1010.15 1009.73 1009.64 1009.60 1009.16 1008.80 1008.52 1008.58 1008.24 1007.37 1005.70 1004.62
1019.35 1019.46 1019.55 1019.59 1019.67 1020.11 1021.11 1021.41 1021.39 1020.86 1020.60 1019.99 1019.38 1018.61 1017.39 1016.85 1015.57 1015.13 1014.34 1014.21 1013.24 1012.76 1012.39 1012.10 1011.79 1011.59 1011.51 1011.31 1010.99 1010.81 1010.77 1010.81 1010.42 1009.98 1009.90 1009.51 1008.89 1008.38 1008.13 1007.51 1006.98 1006.09 1005.10 1003.82
1018.89 1019.04 1019.07 1019.23 1019.31 1019.83 1020.75 1020.99 1020.98 1021.19 1020.17 1019.59 1019.30 1017.95 1016.93 1016.16 1015.36 1014.41 1014.11 1014.12 1013.55 1012.52 1012.15 1012.06 1011.87 1011.74 1011.71 1011.78 1011.83 1011.60 1011.46 1011.32 1011.22 1010.51 1010.37 1009.78 1008.35 1006.97 1006.49 1005.67 1005.47 1005.01 1004.46 1003.77
1018.34 1018.39 1018.55 1018.67 1018.88 1019.46 1020.26 1020.52 1020.59 1020.41 1019.53 1018.95 1018.09 1017.10 1016.57 1015.81 1015.09 1014.67 1013.94 1013.40 1012.99 1012.26 1011.91 1012.13 1011.93 1011.73 1011.53 1011.37 1011.27 1011.47 1011.64 1011.76 1011.93 1011.60 1011.20 1009.75 1006.97 1005.95 1005.43 1004.67 1004.14 1003.83 1003.79 1004.01
1017.78 1017.80 1017.97 1018.10 1018.29 1018.66 1019.68 1020.10 1020.55 1020.46 1019.28 1018.40 1017.52 1017.13 1016.38 1015.68 1015.10 1014.55 1013.88 1013.25 1012.76 1012.51 1012.88 1013.05 1012.74 1012.18 1011.69 1010.67 1010.17 1010.45 1010.85 1011.53 1011.98 1011.97 1011.14 1008.82 1006.95 1005.40 1004.72 1004.27 1003.87 1003.94 1004.12 1004.15
1017.15 1017.22 1017.41 1017.53 1017.73 1018.13 1019.02 1019.30 1019.59 1019.79 1019.30 1017.80 1017.65 1016.99 1016.44 1016.19 1015.79 1014.95 1014.45 1013.56 1013.10 1012.92 1013.58 1013.94 1013.91 1013.03 1011.93 1011.16 1010.00 1009.76 1010.21 1010.75 1011.62 1011.58 1010.81 1008.91 1006.20 1004.95 1004.71 1004.48 1004.20 1004.06 1004.09 1003.98
1016.54 1016.64 1016.80 1016.95 1017.23 1017.56 1018.39 1018.69 1018.81 1019.23 1018.57 1017.58 1017.17 1016.82 1016.27 1015.83 1015.63 1015.33 1014.92 1014.60 1013.94 1013.65 1014.35 1014.77 1014.38 1013.18 1011.95 1011.06 1010.23 1009.88 1009.93 1010.64 1010.72 1010.90 1010.38 1008.44 1005.89 1004.96 1004.51 1005.02 1005.04 1004.50 1004.23 1003.95
1016.05 1016.12 1016.27 1016.45 1016.78 1017.05 1017.86 1018.25 1018.31 1018.75 1018.24 1017.41 1016.71 1016.43 1016.33 1016.07 1015.96 1015.82 1015.45 1015.07 1015.04 1014.79 1014.81 1015.04 1014.17 1013.10 1011.86 1011.13 1010.06 1009.84 1009.48 1009.50 1009.95 1010.37 1009.90 1008.25 1005.75 1004.91 1004.74 1004.70 1004.21 1004.11 1004.13 1003.95
1015.47 1015.63 1015.81 1016.07 1016.36 1016.69 1017.18 1017.91 1017.77 1018.03 1018.60 1017.56 1016.53 1016.25 1015.82 1015.60 1015.39 1015.65 1015.45 1015.50 1015.48 1015.64 1015.49 1015.49 1014.86 1013.44 1012.47 1011.67 1010.45 1009.93 1009.03 1009.23 1009.03 1008.67 1008.07 1006.80 1006.02 1005.34 1004.77 1004.45 1004.02 1003.75 1003.77 1003.94
1014.77 1015.01 1015.25 1015.54 1015.87 1016.24 1016.67 1017.21 1017.48 1017.95 1018.04 1017.25 1016.69 1015.41 1014.23 1014.35 1014.39 1014.59 1015.32 1015.22 1014.77 1015.09 1015.08 1015.55 1015.37 1014.23 1012.82 1011.90 1010.81 1009.98 1009.19 1008.83 1008.18 1007.72 1007.50 1006.90 1006.19 1005.34 1004.70 1004.47 1004.15 1003.95 1004.16 1004.35
1013.96 1014.25 1014.53 1014.91 1015.27 1015.63 1015.99 1016.63 1017.03 1017.44 1017.61 1016.92 1015.55 1014.17 1013.97 1013.09 1013.36 1013.69 1013.80 1014.09 1014.10 1014.51 1014.96 1015.29 1015.16 1014.42 1012.96 1011.95 1010.93 1009.87 1009.29 1008.58 1007.73 1007.52 1007.25 1007.12 1005.87 1005.50 1004.62 1004.40 1004.12 1004.50 1005.12 1005.53
1013.10 1013.43 1013.78 1014.16 1014.61 1015.10 1015.53 1016.03 1016.36 1016.66 1017.24 1016.73 1015.71 1014.35 1012.71 1012.11 1012.48 1012.81 1013.10 1013.53 1013.92 1014.38 1014.70 1014.71 1014.30 1013.49 1012.71 1011.67 1010.82 1009.26 1008.45 1007.91 1007.72 1007.76 1007.16 1006.47 1005.63 1004.95 1004.44 1004.24 1004.57 1004.79 1005.86 1006.91
1012.11 1012.53 1012.98 1013.44 1013.92 1014.44 1015.31 1015.69 1015.93 1016.02 1016.61 1016.95 1015.89 1013.75 1012.26 1011.69 1011.88 1012.27 1012.63 1012.97 1013.46 1013.92 1014.17 1013.99 1013.48 1012.47 1012.29 1011.88 1010.79 1008.76 1007.76 1007.30 1007.17 1006.88 1006.01 1005.52 1005.09 1004.88 1004.74 1005.11 1005.99 1006.85 1007.33 1007.93
1011.00 1011.68 1012.35 1012.89 1013.22 1013.84 1014.21 1014.55 1014.20 1014.58 1016.04 1016.63 1015.90 1014.11 1011.97 1011.22 1011.27 1011.72 1012.12 1012.37 1012.81 1013.23 1013.50 1013.31 1012.86 1012.19 1012.09 1011.80 1010.71 1008.74 1008.39 1007.80 1006.97 1006.15 1005.86 1005.87 1005.64 1005.62 1006.03 1006.61 1007.69 1008.20 1008.78 1009.41
1009.81 1010.61 1011.48 1012.20 1012.76 1013.60 1014.17 1013.96 1013.83 1014.68 1015.68 1016.22 1015.68 1014.02 1012.53 1010.78 1011.24 1011.68 1011.73 1012.09 1012.44 1012.81 1012.82 1012.56 1012.22 1011.80 1011.64 1011.47 1010.86 1010.36 1009.53 1008.37 1007.60 1007.16 1006.73 1006.82 1006.84 1006.59 1006.81 1007.24 1008.29 1009.14 1009.92 1010.51
1008.52 1009.59 1010.85 1011.82 1012.30 1012.70 1013.20 1013.67 1014.08 1014.45 1015.10 1015.19 1014.77 1013.82 1012.30 1010.67 1010.97 1011.44 1011.57 1011.79 1012.14 1012.32 1012.30 1012.02 1012.12 1011.63 1011.73 1011.89 1011.81 1011.62 1011.30 1010.79 1010.08 1008.90 1008.33 1008.08 1008.12 1007.99 1007.70 1008.13 1009.00 1009.90 1010.84 1011.42
1007.31 1008.97 1010.76 1011.37 1011.80 1012.18 1013.02 1014.41 1014.55 1014.35 1014.47 1014.08 1013.54 1012.81 1012.22 1011.11 1011.12 1011.66 1012.05 1011.82 1011.97 1011.98 1011.62 1011.52 1011.74 1011.93 1012.40 1012.67 1012.78 1013.00 1012.78 1012.33 1011.61 1010.59 1010.28 1009.99 1009.83 1009.67 1009.48 1009.78 1009.94 1010.75 1011.66 1012.22
1007.81 1009.11 1009.84 1010.56 1011.08 1012.16 1013.26 1013.72 1014.16 1014.09 1013.82 1013.01 1012.18 1012.01 1011.61 1010.95 1011.33 1011.74 1012.11 1012.11 1012.07 1012.04 1011.42 1011.55 1011.77 1012.28 1013.12 1013.45 1013.55 1013.73 1013.60 1013.45 1013.17 1012.99 1012.62 1012.38 1011.99 1011.43 1010.83 1011.21 1011.63 1012.14 1012.68 1013.17
1006.99 1007.58 1009.11 1010.29 1011.08 1011.76 1012.26 1012.50 1012.72 1012.81 1012.17 1011.46 1011.33 1010.95 1011.04 1010.95 1010.98 1011.77 1012.29 1012.48 1012.49 1012.19 1011.72 1011.95 1012.46 1013.83 1014.35 1014.39 1014.46 1014.46 1014.57 1014.40 1014.24 1014.09 1013.91 1013.60 1013.27 1012.84 1012.52 1012.50 1012.87 1013.32 1013.70 1014.15
1006.63 1007.77 1009.00 1009.55 1010.62 1010.91 1011.00 1010.88 1011.52 1011.42 1010.67 1010.35 1010.47 1010.72 1010.85 1011.08 1011.39 1012.24 1012.51 1012.70 1012.50 1012.08 1012.65 1013.05 1014.26 1015.02 1015.30 1015.42 1015.45 1015.43 1015.45 1015.54 1015.45 1015.30 1015.12 1014.90 1014.54 1014.29 1013.93 1013.94 1014.13 1014.41 1014.83 1015.18
1007.07 1007.91 1008.95 1009.44 1009.93 1009.70 1009.67 1009.57 1009.54 1009.54 1009.68 1009.80 1010.14 1010.87 1010.98 1011.44 1011.85 1012.17 1012.82 1012.72 1012.74 1013.24 1013.91 1014.79 1015.66 1015.90 1016.16 1016.17 1016.27 1016.38 1016.53 1016.74 1016.87 1016.79 1016.48 1016.22 1015.84 1015.63 1015.48 1015.30 1015.33 1015.52 1015.93 1016.34
1007.60 1008.16 1009.15 1009.51 1009.46 1009.48 1009.47 1009.48 1009.71 1009.90 1009.76 1009.66 1010.39 1011.06 1011.39 1012.06 1012.50 1012.67 1013.12 1013.31 1013.78 1014.57 1015.57 1016.41 1016.85 1016.96 1017.04 1017.05 1017.11 1017.26 1017.51 1017.83 1018.01 1018.01 1017.93 1017.61 1017.29 1016.97 1016.72 1016.62 1016.56 1016.65 1016.98 1017.47
1008.79 1009.54 1009.98 1010.00 1010.12 1010.44 1010.37 1010.48 1010.63 1010.55 1010.35 1010.13 1010.68 1011.70 1012.45 1012.85 1013.09 1013.65 1013.98 1014.56 1015.50 1016.59 1017.05 1017.57 1017.82 1017.97 1017.95 1017.93 1017.99 1018.05 1018.34 1018.62 1018.82 1018.82 1018.68 1018.55 1018.47 1018.18 1018.03 1017.92 1017.92 1018.00 1018.16 1018.53
1010.17 1011.11 1011.25 1011.14 1011.59 1011.95 1011.95 1011.87 1011.70 1011.17 1010.94 1011.26 1011.75 1012.64 1013.17 1013.46 1014.20 1015.46 1015.95 1016.65 1016.96 1017.38 1017.96 1018.34 1018.47 1018.61 1018.60 1018.64 1018.58 1018.69 1018.89 1019.16 1019.20 1019.28 1019.43 1019.48 1019.37 1019.22 1019.11 1019.22 1019.42 1019.39 1019.62 1019.88
Wind_Speed
9 8 8 10 9 6 4 1 2 3 3 2 2 8 6 7 11 13 12 11 15 20 6 5 1 5 4 9 9 4 3 3 3 6 7 2 1 2 4 3 6 4 6 11
8 8 10 10 10 3 2 1 2 5 6 3 5 4 11 12 13 12 9 12 10 18 4 4 3 1 5 7 7 6 5 3 3 7 3 8 7 2 5 4 2 3 4 6
8 9 10 10 8 5 4 1 2 5 1 2 3 6 8 6 7 6 9 13 14 18 7 3 5 7 1 7 5 4 2 2 5 5 2 3 7 12 9 2 2 4 8 12
11 12 12 13 10 6 4 2 4 3 3 4 3 6 6 13 10 10 6 8 13 8 5 2 5 5 9 6 8 2 3 6 5 7 6 6 11 15 14 13 12 8 9 15
10 11 11 9 11 6 3 3 2 2 3 6 6 8 6 12 18 4 5 3 15 8 3 3 5 3 1 1 6 4 4 4 3 5 5 10 16 16 14 18 17 16 17 18
13 13 12 11 8 7 3 2 2 0 5 3 3 4 10 8 7 7 9 7 6 9 5 2 3 3 4 5 1 3 2 2 3 9 6 9 13 15 14 17 16 11 16 10
15 13 12 11 9 8 3 3 1 4 5 5 6 7 13 8 6 5 9 7 6 5 0 2 3 5 8 10 10 10 4 3 2 4 2 12 8 6 13 17 15 9 3 4
14 13 12 12 11 12 3 3 3 2 4 4 7 10 3 5 6 4 4 5 4 2 3 3 4 4 4 7 13 13 14 7 1 3 4 13 18 10 2 5 7 7 4 3
14 13 13 13 11 11 4 3 4 3 2 4 4 9 3 1 3 6 4 5 6 3 3 4 2 3 2 6 5 5 11 12 7 3 3 6 4 5 4 12 3 1 2 2
12 12 13 12 11 11 5 3 7 3 3 4 1 3 3 4 2 1 2 7 7 2 2 1 2 4 4 4 3 1 3 8 14 9 4 8 10 9 12 3 3 3 3 3
13 12 13 11 10 9 5 3 5 4 3 6 6 4 3 3 2 1 4 5 2 3 2 2 4 3 3 4 6 5 4 6 6 5 4 10 4 7 2 4 3 2 1 3
15 14 13 12 12 10 6 3 3 4 4 5 3 11 9 7 7 4 3 2 2 2 2 2 4 3 2 4 3 2 6 2 2 8 6 3 4 3 3 4 2 2 2 4
17 17 16 16 15 13 11 3 3 3 2 6 5 10 14 10 10 7 3 3 4 3 3 1 2 5 3 3 3 5 4 4 2 1 4 7 6 5 1 5 4 3 3 3
18 18 17 17 17 15 15 4 3 3 1 4 7 3 5 6 7 9 9 6 2 3 3 2 3 3 3 3 6 6 3 6 5 3 4 8 9 7 13 9 7 2 8 7
20 20 19 18 17 17 8 3 4 4 4 3 4 8 17 13 8 10 8 7 4 2 2 3 4 3 2 3 3 3 3 2 3 3 9 6 12 7 12 11 3 6 8 8
21 20 20 17 15 15 4 4 4 6 4 3 4 5 6 5 7 7 6 6 4 3 3 3 3 4 2 2 2 6 6 11 7 4 7 11 12 7 4 10 12 10 11 10
22 20 20 19 16 8 4 5 3 15 7 2 4 5 5 5 4 4 3 5 3 3 3 4 3 3 1 2 4 6 9 11 11 9 2 6 12 4 11 14 12 13 13 11
22 22 22 20 16 10 5 2 8 12 4 2 3 5 4 5 3 2 3 3 4 4 3 2 2 2 3 3 6 9 13 11 11 8 8 7 7 7 9 11 8 9 9 8
22 22 17 7 5 4 4 8 12 2 2 5 4 3 4 1 3 2 2 3 2 3 3 3 3 2 2 6 8 11 13 12 13 9 12 12 12 10 6 6 6 7 7 6
15 15 3 3 4 14 14 5 1 1 3 3 4 3 3 1 1 2 1 2 2 3 5 3 3 2 6 7 10 9 10 12 14 10 13 13 12 10 7 8 7 7 6 6
4 4 3 4 20 4 2 4 5 3 4 5 5 8 3 2 3 2 2 2 1 1 3 4 3 2 3 8 10 10 10 10 11 11 9 10 9 9 6 8 8 7 7 7
7 9 8 5 3 3 5 6 4 6 7 4 5 5 6 1 3 3 0 2 1 4 1 2 2 3 7 8 10 10 10 10 12 12 12 11 10 8 4 5 6 6 8 8
7 4 4 4 2 6 6 6 4 4 4 4 2 1 4 2 3 2 1 2 5 1 3 2 3 4 6 7 6 8 9 9 9 11 10 9 8 9 6 6 6 6 7 7
3 4 7 4 5 4 5 5 5 3 2 5 4 3 3 2 3 3 4 5 1 2 1 2 2 4 5 5 6 6 7 7 6 7 8 8 8 7 7 6 5 6 7 7
3 3 4 2 2 2 1 2 2 3 0 3 4 4 3 2 3 2 1 2 3 2 1 1 1 3 4 5 4 4 4 3 4 4 3 5 6 5 7 7 6 8 9 9
3 6 3 2 4 3 3 3 2 4 2 1 4 3 2 2 4 3 3 2 1 3 1 1 1 2 3 2 3 3 3 2 2 2 3 5 5 5 5 8 8 8 9 10
4 3 3 3 5 4 3 3 3 4 2 3 3 4 6 1 3 3 3 1 2 2 1 1 0 2 2 3 3 3 2 2 3 3 5 4 5 5 7 9 8 10 10 11
Wind_Direction
294 283 295 302 297 312 66 338 285 255 18 164 212 235 240 229 274 278 291 297 277 279 254 282 278 299 357 351 342 18 332 142 296 250 295 219 132 17 329 308 324 313 265 261
284 284 287 289 287 207 132 245 258 300 112 191 236 274 285 275 285 288 279 266 303 298 256 280 223 4 335 26 7 339 342 6 345 311 36 42 69 25 1 215 232 258 271 271
277 278 283 276 271 222 101 68 315 307 112 236 284 302 275 261 254 272 274 276 267 273 254 230 288 310 237 330 309 227 10 193 188 235 301 337 301 308 319 105 243 330 279 291
277 271 276 265 251 210 105 152 240 212 289 289 262 274 296 277 276 266 269 286 241 240 264 283 286 327 343 20 2 314 161 221 232 242 258 274 280 288 291 275 267 229 272 276
270 267 268 280 244 193 114 164 208 289 281 274 284 292 249 292 293 250 306 281 311 319 329 254 281 17 7 301 337 15 347 281 243 268 302 303 294 283 279 271 266 271 265 263
266 258 249 251 251 182 182 191 232 23 257 275 293 226 263 267 308 285 221 249 279 302 288 291 253 230 242 237 287 297 300 335 22 280 323 314 282 267 255 249 248 251 263 291
267 266 246 247 246 176 152 203 240 241 254 218 239 265 281 317 327 236 268 298 217 279 186 287 296 281 254 245 238 208 230 173 147 272 261 261 265 290 275 247 236 249 192 33
268 255 245 244 246 193 140 164 158 235 272 312 278 289 318 327 323 298 251 275 246 44 37 30 334 322 302 259 237 223 208 192 206 171 220 289 304 281 48 319 217 96 103 334
260 254 245 241 230 198 133 186 153 232 297 233 296 324 289 300 308 341 2 330 302 82 97 75 214 255 276 289 290 193 221 201 190 153 203 259 224 284 343 328 186 246 257 264
263 247 241 239 224 214 151 208 177 234 259 261 70 244 293 329 3 306 327 333 343 46 82 100 225 249 232 258 265 273 173 178 206 212 231 276 272 298 304 221 156 242 283 310
254 254 245 238 232 232 157 224 170 198 225 271 246 269 276 315 300 27 319 2 347 330 85 221 248 238 277 302 266 291 251 178 174 187 170 254 351 310 205 217 216 176 172 330
245 249 242 239 236 229 189 212 207 169 225 270 321 278 248 224 224 189 236 205 101 283 4 28 311 304 312 299 285 326 353 350 225 163 207 267 295 232 252 280 239 311 320 359
243 246 242 237 229 236 221 190 176 113 237 270 254 252 252 230 217 185 184 249 195 181 186 166 265 285 353 314 295 302 268 297 218 280 39 331 323 320 182 269 250 269 307 133
238 240 237 233 230 237 228 196 171 121 349 286 280 265 255 241 213 201 212 220 308 138 134 172 229 255 249 273 271 286 287 329 314 4 319 322 2 293 270 278 268 74 62 44
237 239 235 236 227 228 222 171 192 169 167 273 281 299 272 258 210 210 200 179 158 160 193 225 220 237 251 273 291 277 199 226 48 293 244 201 232 245 255 275 20 91 97 70
234 232 233 228 231 209 147 205 193 191 156 259 286 277 267 230 193 200 202 199 191 170 176 240 242 255 210 262 267 286 298 318 316 277 299 271 286 295 39 72 74 67 73 72
229 225 226 232 224 182 162 189 216 174 120 233 281 288 262 249 199 180 152 168 172 152 200 219 222 243 93 226 233 280 325 313 314 341 347 16 19 17 80 83 75 75 73 68
225 217 212 216 202 156 213 289 130 141 109 195 256 265 306 177 144 172 144 176 160 180 206 224 244 268 198 254 11 25 2 359 19 18 36 54 41 72 107 115 122 91 82 83
216 200 187 164 189 158 168 123 149 86 148 189 212 223 252 156 120 91 180 150 170 175 202 211 187 221 234 29 30 24 15 15 347 358 30 27 40 22 21 112 106 102 106 103
205 127 116 153 173 144 99 24 262 140 208 243 227 162 271 141 134 136 261 159 194 205 219 148 208 139 78 44 58 41 24 16 12 14 14 2 8 359 357 34 66 103 115 112
101 137 114 119 147 91 146 162 190 195 234 210 222 188 204 257 116 161 173 220 190 219 250 169 215 120 50 24 34 34 31 22 16 15 18 13 2 352 10 63 75 92 103 111
150 113 107 127 116 164 178 179 177 193 219 197 185 205 188 253 92 95 247 180 92 246 180 228 156 73 30 18 18 30 27 18 11 10 6 3 3 2 32 73 89 98 111 114
116 82 123 155 169 173 202 151 187 205 209 192 152 128 148 56 69 94 158 102 228 32 62 173 62 48 26 17 12 12 20 23 16 5 1 2 16 21 38 73 80 96 101 106
109 141 134 177 189 209 188 185 181 218 173 132 121 93 124 153 80 139 113 239 279 276 220 142 68 29 4 355 16 8 10 30 23 8 0 6 15 32 35 51 73 100 103 98
74 87 144 156 178 90 85 48 68 1 299 99 74 58 83 60 106 198 154 194 234 37 197 93 15 360 4 359 12 11 29 34 23 356 7 16 14 26 47 43 66 89 97 97
56 35 62 90 85 30 38 28 65 360 350 85 61 101 91 233 150 162 199 221 39 240 137 230 335 21 345 355 1 51 82 84 64 27 30 36 30 36 55 59 61 73 89 94
52 35 8 31 65 53 44 24 351 316 345 84 123 148 200 155 140 75 30 136 219 155 209 233 146 84 3 28 38 54 106 93 78 52 48 42 37 49 67 70 64 74 77 81